QPF
0.03 0.05 0.04 0.03 0.03 0.04 0.04 0.05 0.04 0.04 0.04 0.05 0.05 0.07 0.07 0.06 0.05 0.06 0.07 0.06 0.06 0.06 0.09 0.12 0.18 0.26 0.25 0.16 0.13 0.11 0.09 0.10 0.13 0.14 0.13 0.11 0.12 0.13 0.13 0.14 0.14 0.10 0.07 0.07
0.03 0.03 0.02 0.01 0.02 0.04 0.05 0.05 0.05 0.05 0.06 0.06 0.07 0.09 0.10 0.12 0.11 0.10 0.09 0.07 0.07 0.11 0.12 0.11 0.15 0.24 0.22 0.15 0.12 0.12 0.11 0.10 0.11 0.14 0.15 0.12 0.12 0.12 0.12 0.14 0.14 0.14 0.12 0.09
0.04 0.02 0.01 0.01 0.02 0.03 0.04 0.04 0.04 0.06 0.06 0.06 0.07 0.09 0.11 0.13 0.12 0.12 0.11 0.10 0.10 0.16 0.15 0.14 0.14 0.21 0.18 0.15 0.13 0.12 0.12 0.11 0.10 0.12 0.16 0.16 0.14 0.15 0.15 0.15 0.15 0.15 0.14 0.13
0.02 0.01 0.01 0.02 0.02 0.03 0.04 0.04 0.04 0.05 0.07 0.09 0.07 0.09 0.09 0.10 0.11 0.14 0.14 0.13 0.14 0.19 0.18 0.15 0.13 0.16 0.16 0.15 0.15 0.13 0.11 0.11 0.10 0.11 0.15 0.17 0.14 0.13 0.12 0.12 0.14 0.15 0.15 0.16
0.03 0.01 0.02 0.02 0.02 0.04 0.04 0.04 0.05 0.05 0.06 0.07 0.05 0.06 0.07 0.10 0.13 0.16 0.17 0.18 0.19 0.20 0.17 0.16 0.13 0.13 0.14 0.11 0.11 0.12 0.12 0.10 0.09 0.10 0.13 0.14 0.13 0.11 0.10 0.10 0.10 0.12 0.13 0.14
0.03 0.02 0.03 0.02 0.02 0.03 0.03 0.04 0.05 0.05 0.05 0.06 0.04 0.05 0.06 0.08 0.12 0.13 0.14 0.16 0.18 0.18 0.17 0.16 0.11 0.12 0.16 0.11 0.09 0.12 0.12 0.12 0.11 0.10 0.11 0.12 0.10 0.09 0.10 0.11 0.11 0.12 0.13 0.13
0.03 0.03 0.03 0.03 0.04 0.04 0.03 0.04 0.05 0.05 0.04 0.04 0.03 0.03 0.06 0.09 0.10 0.13 0.14 0.13 0.14 0.16 0.17 0.15 0.13 0.18 0.19 0.13 0.12 0.14 0.14 0.18 0.16 0.12 0.12 0.15 0.12 0.09 0.09 0.10 0.11 0.13 0.15 0.16
0.03 0.02 0.02 0.02 0.04 0.04 0.02 0.02 0.03 0.03 0.03 0.03 0.03 0.04 0.07 0.09 0.10 0.11 0.10 0.10 0.12 0.13 0.14 0.14 0.14 0.16 0.13 0.10 0.12 0.13 0.14 0.15 0.12 0.10 0.11 0.13 0.14 0.12 0.09 0.08 0.08 0.09 0.10 0.11
0.03 0.02 0.01 0.01 0.01 0.02 0.02 0.02 0.02 0.02 0.02 0.02 0.02 0.04 0.06 0.07 0.06 0.06 0.06 0.07 0.08 0.09 0.10 0.11 0.11 0.11 0.08 0.07 0.07 0.07 0.08 0.09 0.08 0.06 0.05 0.07 0.08 0.08 0.08 0.08 0.07 0.07 0.07 0.07
0.03 0.02 0.01 0.01 0.02 0.02 0.02 0.01 0.01 0.02 0.01 0.01 0.01 0.03 0.06 0.07 0.06 0.05 0.05 0.05 0.05 0.06 0.08 0.09 0.08 0.07 0.06 0.04 0.04 0.03 0.03 0.04 0.04 0.04 0.04 0.04 0.04 0.04 0.04 0.06 0.06 0.07 0.07 0.07
0.01 0.01 0.01 0.01 0.02 0.01 0.01 0.02 0.02 0.01 0.01 0.01 0.01 0.02 0.04 0.05 0.06 0.05 0.03 0.02 0.03 0.05 0.06 0.06 0.05 0.04 0.04 0.04 0.03 0.03 0.03 0.04 0.04 0.03 0.03 0.03 0.03 0.03 0.04 0.04 0.05 0.05 0.06 0.07
0.01 0.01 0.01 0.01 0.01 0.00 0.01 0.02 0.02 0.02 0.01 0.01 0.01 0.02 0.03 0.04 0.04 0.03 0.02 0.02 0.02 0.04 0.05 0.04 0.02 0.01 0.02 0.03 0.04 0.04 0.04 0.05 0.05 0.04 0.04 0.04 0.04 0.04 0.05 0.06 0.05 0.05 0.05 0.06
0.01 0.02 0.01 0.00 0.00 0.01 0.01 0.01 0.01 0.02 0.02 0.01 0.01 0.02 0.02 0.01 0.02 0.02 0.02 0.02 0.02 0.03 0.03 0.03 0.02 0.01 0.01 0.01 0.02 0.02 0.03 0.04 0.04 0.04 0.04 0.04 0.03 0.03 0.04 0.06 0.07 0.06 0.07 0.07
0.01 0.01 0.01 0.00 0.00 0.00 0.00 0.00 0.01 0.02 0.02 0.01 0.00 0.00 0.00 0.01 0.02 0.01 0.01 0.01 0.02 0.03 0.03 0.02 0.01 0.01 0.00 0.01 0.01 0.01 0.02 0.03 0.04 0.03 0.03 0.03 0.03 0.03 0.03 0.04 0.05 0.07 0.07 0.09
0.01 0.00 0.00 0.00 0.00 0.00 0.00 0.00 0.01 0.01 0.01 0.01 0.00 0.00 0.00 0.01 0.02 0.01 0.00 0.00 0.01 0.01 0.02 0.02 0.02 0.03 0.01 0.01 0.02 0.02 0.02 0.02 0.03 0.03 0.03 0.02 0.03 0.03 0.03 0.04 0.05 0.07 0.07 0.08
0.00 0.00 0.00 0.00 0.00 0.00 0.01 0.01 0.01 0.01 0.01 0.01 0.00 0.00 0.01 0.02 0.02 0.01 0.00 0.00 0.00 0.00 0.01 0.02 0.02 0.04 0.02 0.02 0.02 0.01 0.02 0.02 0.03 0.04 0.03 0.03 0.04 0.04 0.04 0.04 0.06 0.06 0.07 0.08
0.00 0.00 0.01 0.00 0.00 0.00 0.01 0.01 0.01 0.01 0.01 0.01 0.01 0.01 0.03 0.03 0.01 0.01 0.00 0.00 0.00 0.00 0.01 0.02 0.02 0.03 0.02 0.01 0.01 0.01 0.02 0.01 0.02 0.03 0.03 0.04 0.04 0.05 0.04 0.05 0.05 0.06 0.07 0.09
0.00 0.01 0.01 0.01 0.00 0.01 0.01 0.01 0.01 0.01 0.01 0.02 0.03 0.03 0.03 0.02 0.01 0.01 0.00 0.00 0.00 0.00 0.00 0.01 0.03 0.02 0.02 0.01 0.01 0.01 0.01 0.01 0.01 0.03 0.05 0.04 0.04 0.05 0.05 0.05 0.04 0.05 0.07 0.08
0.00 0.01 0.01 0.01 0.01 0.01 0.01 0.01 0.01 0.01 0.02 0.03 0.03 0.02 0.02 0.02 0.01 0.02 0.01 0.01 0.01 0.01 0.01 0.01 0.01 0.03 0.03 0.03 0.03 0.02 0.02 0.03 0.04 0.05 0.06 0.06 0.05 0.06 0.06 0.05 0.05 0.05 0.04 0.05
0.00 0.00 0.01 0.01 0.01 0.01 0.01 0.01 0.00 0.00 0.01 0.02 0.03 0.02 0.02 0.02 0.02 0.03 0.02 0.01 0.01 0.01 0.01 0.01 0.01 0.01 0.02 0.04 0.04 0.03 0.04 0.05 0.05 0.04 0.05 0.05 0.05 0.05 0.04 0.04 0.04 0.03 0.02 0.03
0.00 0.01 0.01 0.01 0.01 0.01 0.01 0.00 0.00 0.00 0.00 0.01 0.02 0.02 0.01 0.01 0.01 0.01 0.01 0.01 0.01 0.01 0.01 0.01 0.01 0.01 0.01 0.01 0.01 0.02 0.03 0.04 0.04 0.03 0.03 0.03 0.03 0.04 0.03 0.03 0.02 0.02 0.02 0.02
0.01 0.01 0.01 0.01 0.01 0.01 0.01 0.00 0.00 0.00 0.00 0.01 0.02 0.02 0.01 0.01 0.01 0.00 0.00 0.01 0.01 0.01 0.01 0.01 0.01 0.01 0.01 0.01 0.01 0.01 0.01 0.02 0.03 0.03 0.03 0.02 0.01 0.02 0.03 0.03 0.04 0.02 0.02 0.02
0.00 0.01 0.01 0.01 0.01 0.01 0.01 0.01 0.00 0.00 0.00 0.00 0.01 0.01 0.01 0.01 0.01 0.01 0.00 0.01 0.01 0.01 0.01 0.01 0.01 0.01 0.01 0.01 0.01 0.01 0.01 0.01 0.01 0.02 0.02 0.01 0.01 0.01 0.02 0.03 0.04 0.04 0.03 0.02
0.00 0.00 0.00 0.00 0.00 0.00 0.00 0.00 0.00 0.00 0.00 0.00 0.00 0.00 0.00 0.01 0.01 0.01 0.00 0.00 0.00 0.01 0.01 0.01 0.01 0.01 0.01 0.01 0.01 0.01 0.01 0.01 0.00 0.00 0.01 0.01 0.01 0.01 0.01 0.02 0.03 0.04 0.04 0.03
0.00 0.00 0.00 0.00 0.00 0.00 0.00 0.00 0.00 0.00 0.00 0.00 0.00 0.00 0.00 0.00 0.00 0.00 0.00 0.00 0.00 0.00 0.00 0.00 0.00 0.00 0.00 0.00 0.00 0.00 0.00 0.00 0.00 0.00 0.00 0.00 0.01 0.01 0.01 0.01 0.02 0.03 0.04 0.05
0.00 0.00 0.00 0.00 0.00 0.00 0.00 0.00 0.00 0.00 0.00 0.00 0.00 0.00 0.00 0.00 0.00 0.00 0.00 0.00 0.00 0.00 0.00 0.00 0.00 0.00 0.00 0.00 0.00 0.00 0.00 0.00 0.00 0.00 0.00 0.00 0.00 0.01 0.01 0.01 0.01 0.02 0.03 0.04
MSLP
1017.54 1017.61 1017.57 1017.41 1017.15 1016.82 1016.48 1016.16 1015.91 1015.75 1015.70 1015.73 1015.83 1015.94 1016.02 1016.00 1015.86 1015.56 1015.09 1014.47 1013.74 1012.95 1012.16 1011.43 1010.82 1010.36 1010.07 1009.94 1009.97 1010.11 1010.32 1010.55 1010.78 1010.96 1011.10 1011.17 1011.19 1011.17 1011.13 1011.09 1011.07 1011.08 1011.15 1011.29
1017.63 1017.60 1017.44 1017.17 1016.81 1016.42 1016.06 1015.77 1015.60 1015.55 1015.64 1015.83 1016.08 1016.34 1016.55 1016.66 1016.61 1016.39 1015.99 1015.41 1014.69 1013.89 1013.05 1012.25 1011.54 1010.96 1010.54 1010.30 1010.22 1010.27 1010.41 1010.60 1010.80 1010.96 1011.06 1011.10 1011.06 1010.97 1010.83 1010.69 1010.56 1010.48 1010.46 1010.55
1017.62 1017.51 1017.25 1016.89 1016.46 1016.04 1015.67 1015.42 1015.31 1015.36 1015.55 1015.84 1016.20 1016.57 1016.89 1017.10 1017.17 1017.06 1016.76 1016.29 1015.67 1014.93 1014.13 1013.33 1012.57 1011.92 1011.40 1011.03 1010.82 1010.75 1010.79 1010.89 1011.00 1011.10 1011.14 1011.11 1010.99 1010.80 1010.56 1010.30 1010.06 1009.87 1009.77 1009.78
1017.51 1017.33 1017.01 1016.60 1016.14 1015.72 1015.38 1015.17 1015.12 1015.23 1015.48 1015.82 1016.23 1016.64 1017.01 1017.29 1017.44 1017.45 1017.30 1016.99 1016.52 1015.93 1015.25 1014.52 1013.79 1013.11 1012.52 1012.05 1011.72 1011.51 1011.41 1011.38 1011.39 1011.38 1011.32 1011.20 1010.99 1010.70 1010.35 1009.98 1009.62 1009.32 1009.12 1009.03
1017.32 1017.09 1016.74 1016.32 1015.89 1015.51 1015.23 1015.09 1015.10 1015.25 1015.51 1015.85 1016.23 1016.61 1016.96 1017.25 1017.46 1017.56 1017.55 1017.41 1017.15 1016.75 1016.25 1015.67 1015.03 1014.39 1013.78 1013.24 1012.79 1012.44 1012.19 1012.02 1011.88 1011.75 1011.59 1011.36 1011.05 1010.67 1010.22 1009.75 1009.28 1008.87 1008.56 1008.37
1017.09 1016.83 1016.49 1016.11 1015.75 1015.47 1015.29 1015.24 1015.32 1015.49 1015.74 1016.02 1016.32 1016.60 1016.86 1017.09 1017.28 1017.43 1017.53 1017.55 1017.49 1017.32 1017.04 1016.64 1016.15 1015.59 1015.00 1014.42 1013.88 1013.41 1013.02 1012.70 1012.42 1012.16 1011.88 1011.56 1011.17 1010.70 1010.18 1009.62 1009.07 1008.56 1008.14 1007.84
1016.88 1016.61 1016.30 1016.00 1015.76 1015.62 1015.59 1015.66 1015.81 1016.01 1016.22 1016.41 1016.57 1016.70 1016.80 1016.91 1017.02 1017.16 1017.31 1017.46 1017.57 1017.61 1017.54 1017.35 1017.02 1016.58 1016.04 1015.45 1014.86 1014.29 1013.77 1013.31 1012.91 1012.53 1012.16 1011.76 1011.30 1010.79 1010.21 1009.60 1008.98 1008.39 1007.87 1007.46
1016.75 1016.49 1016.24 1016.05 1015.96 1015.99 1016.12 1016.34 1016.58 1016.81 1016.98 1017.06 1017.06 1016.99 1016.90 1016.82 1016.79 1016.85 1017.00 1017.21 1017.44 1017.65 1017.77 1017.76 1017.60 1017.27 1016.81 1016.24 1015.61 1014.97 1014.35 1013.79 1013.27 1012.81 1012.36 1011.91 1011.42 1010.89 1010.30 1009.66 1008.99 1008.34 1007.73 1007.21
1016.74 1016.50 1016.32 1016.26 1016.34 1016.55 1016.86 1017.21 1017.56 1017.81 1017.94 1017.92 1017.75 1017.48 1017.17 1016.88 1016.68 1016.62 1016.70 1016.91 1017.20 1017.51 1017.77 1017.90 1017.87 1017.66 1017.26 1016.72 1016.08 1015.40 1014.71 1014.07 1013.48 1012.95 1012.46 1011.98 1011.50 1010.97 1010.39 1009.75 1009.06 1008.36 1007.68 1007.05
1016.88 1016.67 1016.57 1016.63 1016.86 1017.24 1017.70 1018.19 1018.61 1018.90 1018.99 1018.87 1018.56 1018.11 1017.59 1017.11 1016.73 1016.52 1016.50 1016.66 1016.95 1017.30 1017.63 1017.85 1017.91 1017.77 1017.44 1016.93 1016.29 1015.58 1014.85 1014.16 1013.52 1012.95 1012.44 1011.97 1011.49 1010.99 1010.43 1009.81 1009.12 1008.39 1007.64 1006.92
1017.18 1017.00 1016.98 1017.14 1017.48 1017.97 1018.55 1019.12 1019.60 1019.89 1019.95 1019.75 1019.33 1018.74 1018.08 1017.44 1016.91 1016.57 1016.45 1016.53 1016.77 1017.11 1017.45 1017.70 1017.80 1017.70 1017.40 1016.91 1016.28 1015.56 1014.81 1014.09 1013.43 1012.84 1012.32 1011.85 1011.40 1010.93 1010.40 1009.80 1009.12 1008.36 1007.56 1006.75
1017.61 1017.47 1017.49 1017.71 1018.12 1018.66 1019.28 1019.87 1020.34 1020.62 1020.64 1020.39 1019.90 1019.24 1018.49 1017.77 1017.16 1016.73 1016.53 1016.54 1016.72 1017.01 1017.31 1017.54 1017.64 1017.55 1017.25 1016.78 1016.15 1015.43 1014.68 1013.94 1013.27 1012.67 1012.14 1011.67 1011.23 1010.78 1010.27 1009.68 1009.00 1008.23 1007.37 1006.48
1018.15 1018.04 1018.09 1018.32 1018.71 1019.22 1019.79 1020.33 1020.74 1020.95 1020.92 1020.64 1020.14 1019.47 1018.73 1018.00 1017.38 1016.94 1016.70 1016.67 1016.79 1017.02 1017.26 1017.45 1017.51 1017.39 1017.09 1016.61 1015.99 1015.28 1014.52 1013.78 1013.09 1012.47 1011.93 1011.45 1011.00 1010.54 1010.03 1009.45 1008.76 1007.96 1007.08 1006.12
1018.77 1018.67 1018.71 1018.89 1019.20 1019.60 1020.04 1020.44 1020.72 1020.84 1020.75 1020.45 1019.96 1019.35 1018.69 1018.05 1017.51 1017.12 1016.91 1016.86 1016.96 1017.13 1017.31 1017.43 1017.44 1017.28 1016.96 1016.48 1015.86 1015.16 1014.41 1013.66 1012.96 1012.32 1011.74 1011.22 1010.73 1010.24 1009.72 1009.11 1008.41 1007.59 1006.67 1005.68
1019.42 1019.34 1019.33 1019.41 1019.57 1019.79 1020.02 1020.21 1020.31 1020.29 1020.12 1019.81 1019.38 1018.87 1018.35 1017.87 1017.47 1017.20 1017.08 1017.07 1017.16 1017.29 1017.42 1017.48 1017.42 1017.23 1016.89 1016.40 1015.80 1015.10 1014.37 1013.62 1012.90 1012.23 1011.60 1011.03 1010.48 1009.93 1009.35 1008.71 1007.97 1007.14 1006.20 1005.18
1020.09 1019.99 1019.91 1019.85 1019.82 1019.79 1019.76 1019.70 1019.58 1019.40 1019.14 1018.82 1018.47 1018.10 1017.76 1017.47 1017.27 1017.17 1017.16 1017.22 1017.33 1017.45 1017.53 1017.53 1017.43 1017.20 1016.85 1016.37 1015.79 1015.12 1014.40 1013.67 1012.93 1012.22 1011.54 1010.88 1010.25 1009.62 1008.97 1008.27 1007.50 1006.65 1005.70 1004.67
1020.73 1020.60 1020.42 1020.20 1019.94 1019.65 1019.34 1019.00 1018.66 1018.30 1017.96 1017.64 1017.36 1017.14 1016.99 1016.92 1016.93 1017.00 1017.13 1017.27 1017.42 1017.53 1017.58 1017.54 1017.40 1017.16 1016.81 1016.35 1015.81 1015.19 1014.51 1013.79 1013.04 1012.29 1011.55 1010.81 1010.08 1009.35 1008.61 1007.85 1007.04 1006.16 1005.21 1004.20
1021.31 1021.12 1020.82 1020.42 1019.95 1019.40 1018.82 1018.24 1017.67 1017.17 1016.75 1016.43 1016.23 1016.15 1016.18 1016.31 1016.51 1016.74 1016.99 1017.21 1017.38 1017.49 1017.52 1017.46 1017.30 1017.06 1016.73 1016.32 1015.84 1015.28 1014.65 1013.96 1013.22 1012.44 1011.63 1010.80 1009.97 1009.14 1008.31 1007.46 1006.60 1005.71 1004.76 1003.78
1021.75 1021.49 1021.07 1020.52 1019.84 1019.08 1018.28 1017.49 1016.76 1016.14 1015.67 1015.36 1015.23 1015.27 1015.45 1015.73 1016.08 1016.44 1016.77 1017.04 1017.23 1017.33 1017.34 1017.26 1017.11 1016.88 1016.60 1016.26 1015.85 1015.37 1014.81 1014.16 1013.44 1012.63 1011.77 1010.86 1009.93 1008.99 1008.06 1007.14 1006.22 1005.30 1004.37 1003.41
1022.01 1021.66 1021.14 1020.45 1019.63 1018.71 1017.75 1016.82 1015.99 1015.30 1014.81 1014.53 1014.47 1014.59 1014.88 1015.27 1015.71 1016.14 1016.51 1016.80 1016.99 1017.08 1017.07 1016.98 1016.84 1016.65 1016.43 1016.16 1015.84 1015.45 1014.96 1014.37 1013.67 1012.85 1011.94 1010.96 1009.94 1008.90 1007.87 1006.87 1005.90 1004.96 1004.03 1003.10
1022.01 1021.58 1020.96 1020.18 1019.27 1018.26 1017.24 1016.25 1015.39 1014.70 1014.22 1013.99 1013.98 1014.17 1014.52 1014.97 1015.44 1015.89 1016.27 1016.55 1016.71 1016.77 1016.74 1016.65 1016.53 1016.39 1016.23 1016.04 1015.82 1015.52 1015.11 1014.58 1013.90 1013.08 1012.14 1011.10 1010.00 1008.87 1007.76 1006.68 1005.66 1004.69 1003.76 1002.86
1021.72 1021.20 1020.52 1019.69 1018.75 1017.73 1016.71 1015.76 1014.93 1014.30 1013.88 1013.70 1013.75 1013.99 1014.36 1014.82 1015.29 1015.72 1016.06 1016.30 1016.43 1016.45 1016.41 1016.33 1016.23 1016.13 1016.04 1015.94 1015.80 1015.58 1015.24 1014.76 1014.12 1013.31 1012.35 1011.26 1010.10 1008.90 1007.72 1006.58 1005.50 1004.50 1003.57 1002.68
1021.11 1020.52 1019.80 1018.97 1018.05 1017.09 1016.15 1015.29 1014.57 1014.03 1013.71 1013.60 1013.70 1013.97 1014.35 1014.80 1015.23 1015.61 1015.91 1016.09 1016.18 1016.18 1016.12 1016.05 1015.98 1015.93 1015.89 1015.86 1015.78 1015.63 1015.35 1014.92 1014.31 1013.51 1012.54 1011.44 1010.24 1009.00 1007.76 1006.57 1005.46 1004.43 1003.49 1002.62
1020.20 1019.55 1018.82 1018.01 1017.17 1016.32 1015.51 1014.80 1014.22 1013.81 1013.60 1013.58 1013.73 1014.02 1014.40 1014.82 1015.21 1015.54 1015.78 1015.93 1015.98 1015.96 1015.91 1015.85 1015.80 1015.79 1015.79 1015.80 1015.77 1015.66 1015.42 1015.02 1014.44 1013.66 1012.71 1011.61 1010.41 1009.15 1007.90 1006.69 1005.55 1004.51 1003.55 1002.69
1019.01 1018.32 1017.60 1016.85 1016.11 1015.40 1014.75 1014.21 1013.80 1013.54 1013.45 1013.52 1013.72 1014.04 1014.41 1014.80 1015.16 1015.45 1015.66 1015.78 1015.82 1015.80 1015.76 1015.71 1015.69 1015.69 1015.72 1015.74 1015.73 1015.64 1015.43 1015.05 1014.50 1013.76 1012.84 1011.77 1010.60 1009.38 1008.14 1006.94 1005.80 1004.75 1003.79 1002.92
1017.60 1016.89 1016.20 1015.53 1014.90 1014.34 1013.86 1013.48 1013.24 1013.12 1013.15 1013.30 1013.57 1013.91 1014.29 1014.67 1015.02 1015.30 1015.51 1015.63 1015.68 1015.68 1015.65 1015.63 1015.62 1015.63 1015.65 1015.67 1015.65 1015.56 1015.34 1014.99 1014.47 1013.77 1012.92 1011.92 1010.82 1009.66 1008.48 1007.31 1006.20 1005.16 1004.20 1003.32
Thickness
5506 5503 5505 5509 5511 5514 5513 5514 5517 5524 5532 5531 5531 5537 5545 5548 5550 5552 5555 5558 5563 5568 5574 5580 5586 5592 5598 5603 5607 5611 5615 5619 5622 5625 5627 5630 5632 5635 5638 5642 5644 5646 5648 5650
5499 5502 5510 5513 5512 5512 5511 5512 5517 5524 5530 5531 5530 5534 5541 5545 5548 5550 5552 5555 5559 5563 5568 5575 5580 5584 5589 5593 5597 5602 5605 5610 5614 5617 5619 5621 5623 5626 5630 5632 5635 5638 5640 5642
5501 5508 5514 5514 5513 5512 5514 5515 5518 5522 5528 5530 5529 5532 5539 5543 5546 5549 5550 5552 5555 5560 5563 5568 5572 5576 5580 5584 5588 5593 5596 5601 5605 5608 5610 5612 5613 5617 5620 5623 5627 5630 5633 5635
5503 5510 5513 5513 5514 5514 5516 5524 5525 5526 5522 5520 5524 5523 5535 5537 5541 5545 5545 5547 5551 5555 5559 5562 5566 5570 5572 5575 5580 5584 5589 5593 5596 5599 5602 5603 5604 5607 5611 5615 5618 5622 5625 5627
5503 5510 5512 5514 5519 5520 5521 5526 5525 5525 5521 5518 5521 5520 5529 5532 5537 5540 5540 5541 5545 5548 5552 5556 5560 5564 5566 5569 5573 5579 5583 5586 5589 5590 5592 5594 5596 5599 5602 5606 5610 5614 5617 5619
5506 5512 5515 5518 5522 5524 5524 5523 5523 5519 5519 5519 5522 5520 5526 5528 5534 5537 5537 5537 5540 5543 5546 5549 5552 5558 5561 5564 5567 5571 5575 5578 5580 5582 5584 5586 5589 5592 5595 5598 5601 5604 5608 5611
5504 5512 5516 5519 5520 5522 5521 5517 5513 5515 5512 5518 5522 5521 5524 5533 5536 5535 5534 5534 5535 5538 5540 5543 5547 5551 5555 5557 5560 5564 5568 5570 5572 5575 5577 5579 5582 5585 5589 5592 5594 5597 5600 5603
5499 5504 5516 5520 5521 5520 5520 5518 5513 5515 5514 5515 5518 5520 5526 5533 5534 5533 5532 5531 5532 5533 5536 5539 5541 5544 5548 5550 5553 5557 5560 5563 5565 5568 5570 5573 5575 5579 5582 5584 5586 5589 5592 5594
5500 5505 5518 5521 5523 5522 5522 5518 5518 5509 5508 5510 5517 5519 5528 5531 5531 5529 5528 5529 5529 5530 5532 5534 5536 5538 5541 5543 5546 5550 5553 5556 5559 5561 5564 5567 5569 5570 5573 5576 5578 5580 5583 5586
5505 5505 5515 5520 5524 5523 5523 5519 5511 5512 5515 5517 5518 5518 5524 5528 5527 5527 5526 5526 5526 5527 5528 5530 5531 5533 5534 5536 5539 5543 5546 5548 5551 5554 5556 5558 5559 5562 5565 5568 5570 5572 5574 5576
5507 5504 5510 5517 5519 5519 5520 5519 5513 5506 5510 5512 5515 5525 5532 5530 5530 5527 5526 5525 5524 5524 5525 5525 5526 5528 5529 5531 5533 5535 5538 5542 5545 5547 5548 5549 5551 5554 5557 5560 5562 5563 5565 5566
5505 5501 5502 5513 5520 5522 5522 5521 5515 5514 5511 5502 5505 5522 5535 5530 5530 5529 5526 5525 5524 5523 5523 5523 5523 5524 5525 5526 5527 5529 5532 5535 5538 5540 5541 5543 5545 5547 5549 5551 5553 5555 5556 5557
5509 5503 5501 5512 5517 5520 5522 5523 5519 5511 5504 5498 5507 5526 5532 5529 5529 5528 5526 5524 5522 5521 5521 5520 5520 5522 5522 5523 5523 5525 5527 5529 5531 5533 5535 5536 5538 5540 5541 5543 5544 5546 5547 5548
5512 5503 5502 5511 5517 5515 5519 5522 5517 5512 5505 5506 5513 5522 5530 5530 5529 5527 5525 5522 5520 5519 5519 5518 5518 5519 5519 5519 5520 5521 5522 5524 5526 5528 5529 5530 5531 5532 5533 5535 5537 5538 5539 5541
5510 5505 5508 5509 5513 5515 5519 5522 5521 5517 5517 5513 5524 5523 5532 5533 5531 5529 5524 5522 5520 5519 5518 5517 5516 5516 5516 5515 5516 5517 5518 5519 5521 5521 5522 5523 5524 5526 5527 5528 5529 5529 5530 5531
5504 5506 5508 5511 5517 5515 5518 5523 5523 5524 5524 5521 5522 5528 5536 5533 5529 5526 5523 5522 5520 5518 5518 5517 5516 5514 5513 5513 5513 5514 5514 5515 5516 5516 5517 5518 5520 5520 5520 5521 5520 5520 5519 5519
5500 5503 5506 5505 5507 5518 5522 5528 5527 5528 5527 5526 5528 5536 5534 5532 5532 5530 5525 5522 5521 5519 5517 5516 5514 5513 5512 5512 5512 5511 5512 5512 5513 5513 5514 5514 5514 5514 5513 5512 5511 5509 5509 5508
5499 5499 5496 5497 5506 5520 5537 5535 5531 5531 5533 5530 5535 5535 5535 5536 5534 5531 5527 5524 5521 5520 5518 5516 5513 5512 5512 5511 5510 5510 5510 5510 5510 5509 5510 5509 5508 5507 5505 5504 5502 5500 5499 5498
5498 5500 5495 5493 5497 5512 5534 5535 5531 5532 5535 5536 5534 5534 5532 5529 5529 5527 5527 5525 5524 5522 5520 5517 5515 5513 5511 5509 5509 5508 5507 5506 5506 5505 5504 5503 5501 5500 5498 5496 5494 5492 5491 5489
5494 5494 5492 5492 5504 5523 5541 5537 5533 5535 5536 5539 5534 5531 5527 5526 5526 5530 5528 5524 5522 5520 5518 5515 5513 5511 5509 5507 5506 5505 5503 5502 5500 5499 5497 5496 5494 5492 5490 5489 5487 5485 5483 5481
5495 5490 5489 5490 5496 5513 5528 5530 5534 5531 5540 5540 5534 5531 5526 5527 5531 5530 5526 5523 5521 5519 5516 5514 5511 5508 5507 5505 5503 5501 5499 5497 5495 5493 5491 5490 5488 5486 5484 5482 5480 5478 5476 5474
5491 5486 5486 5487 5495 5517 5530 5525 5526 5533 5536 5534 5532 5531 5527 5526 5525 5523 5522 5520 5518 5515 5513 5511 5507 5505 5503 5501 5499 5497 5494 5492 5490 5488 5486 5483 5481 5479 5478 5475 5473 5470 5468 5466
5487 5494 5494 5499 5518 5526 5523 5525 5530 5529 5529 5530 5528 5528 5526 5523 5521 5519 5517 5515 5514 5512 5510 5507 5504 5500 5498 5496 5495 5492 5490 5487 5484 5482 5479 5476 5474 5472 5470 5467 5465 5462 5460 5457
5486 5489 5490 5494 5512 5518 5520 5521 5525 5525 5527 5528 5527 5525 5523 5521 5519 5516 5513 5511 5509 5507 5505 5502 5499 5496 5493 5491 5489 5487 5485 5482 5479 5476 5472 5470 5467 5464 5461 5459 5457 5454 5451 5449
5491 5483 5485 5493 5508 5514 5524 5523 5524 5525 5524 5523 5522 5521 5520 5518 5515 5513 5510 5508 5505 5504 5501 5498 5495 5493 5490 5487 5484 5482 5478 5475 5472 5469 5465 5462 5459 5456 5453 5450 5448 5446 5443 5440
5485 5488 5491 5509 5516 5515 5524 5528 5524 5522 5521 5519 5517 5516 5515 5513 5512 5510 5507 5505 5502 5499 5496 5493 5490 5488 5485 5482 5479 5476 5473 5470 5467 5463 5459 5455 5451 5448 5445 5442 5440 5439 5436 5434